SWA2131 KLAS-KDSM

Flight info

Callsign SWA2131
Flight time N/A
Altitude 39000
Route GIDGT3 TUKRR DCT DVC DCT KANON DCT MCK J44 LNK DCT DSM
Aircraft B737/M-SDE2E3GIJ4J7RWZ/LB1D1

Departure

Time N/A
Airport Harry Reid International Airport (KLAS)

Arrival

Time 2026-04-24 20:08
Airport Des Moines International Airport (KDSM)
Time Latitude Longitude Altitude Speed Heading
2026-04-24 17:10 36.08317 -115.15356 2189 ft 0 kts 142°
2026-04-24 18:54 38.87705 -104.65142 38935 ft 512 kts 62°
2026-04-24 18:55 38.92080 -104.52647 38946 ft 512 kts 62°
2026-04-24 18:56 38.94976 -104.44345 38948 ft 512 kts 62°
2026-04-24 18:56 38.97880 -104.35996 38945 ft 512 kts 62°
2026-04-24 18:57 39.00783 -104.27630 38941 ft 512 kts 62°
2026-04-24 18:57 39.03681 -104.19252 38936 ft 512 kts 62°
2026-04-24 18:58 39.06573 -104.10864 38932 ft 513 kts 63°
2026-04-24 18:58 39.09463 -104.02461 38926 ft 513 kts 63°
2026-04-24 18:59 39.12345 -103.94059 38921 ft 512 kts 63°
2026-04-24 18:59 39.15214 -103.85664 38916 ft 512 kts 63°
2026-04-24 19:00 39.18082 -103.77253 38912 ft 512 kts 63°
2026-04-24 19:00 39.20942 -103.68837 38911 ft 513 kts 63°
2026-04-24 19:01 39.23799 -103.60408 38910 ft 513 kts 63°
2026-04-24 19:01 39.26649 -103.51975 38910 ft 513 kts 63°
2026-04-24 19:02 39.29010 -103.44968 38908 ft 512 kts 63°
2026-04-24 19:02 39.32323 -103.35107 38906 ft 512 kts 63°
2026-04-24 19:03 39.35151 -103.26666 38904 ft 512 kts 64°
2026-04-24 19:03 39.37972 -103.18218 38902 ft 512 kts 64°
2026-04-24 19:04 39.40782 -103.09778 38899 ft 511 kts 64°
2026-04-24 19:04 39.43564 -103.01396 38897 ft 510 kts 64°
2026-04-24 19:05 39.46359 -102.92952 38888 ft 510 kts 64°
2026-04-24 19:05 39.49148 -102.84500 38871 ft 509 kts 64°
2026-04-24 19:06 39.51922 -102.76070 38864 ft 509 kts 64°
2026-04-24 19:06 39.54690 -102.67630 38869 ft 509 kts 64°
2026-04-24 19:07 39.57450 -102.59192 38877 ft 508 kts 65°
2026-04-24 19:07 39.59733 -102.52191 38878 ft 507 kts 65°
2026-04-24 19:08 39.62936 -102.42338 38879 ft 507 kts 65°
2026-04-24 19:08 39.65666 -102.33917 38880 ft 506 kts 65°
2026-04-24 19:09 39.68388 -102.25493 38883 ft 505 kts 65°
2026-04-24 19:09 39.71100 -102.17073 38889 ft 505 kts 65°
2026-04-24 19:10 39.73806 -102.08649 38888 ft 505 kts 65°
2026-04-24 19:10 39.76506 -102.00214 38886 ft 505 kts 65°
2026-04-24 19:11 39.79197 -101.91785 38882 ft 504 kts 65°
2026-04-24 19:11 39.81882 -101.83348 38881 ft 504 kts 65°
2026-04-24 19:12 39.84560 -101.74906 38881 ft 504 kts 66°
2026-04-24 19:12 39.87231 -101.66462 38885 ft 505 kts 66°
2026-04-24 19:13 39.89453 -101.59417 38893 ft 506 kts 66°
2026-04-24 19:13 39.92548 -101.49576 38908 ft 505 kts 66°
2026-04-24 19:14 39.95205 -101.41096 38923 ft 506 kts 66°
2026-04-24 19:14 39.97859 -101.32603 38939 ft 506 kts 66°
2026-04-24 19:15 40.00508 -101.24095 38952 ft 507 kts 66°
2026-04-24 19:15 40.03151 -101.15585 38962 ft 505 kts 67°
2026-04-24 19:16 40.07096 -101.02825 38965 ft 505 kts 67°
2026-04-24 19:16 40.09728 -100.94385 38959 ft 505 kts 67°
2026-04-24 19:17 40.12354 -100.85852 38952 ft 506 kts 67°
2026-04-24 19:17 40.14957 -100.77303 38946 ft 506 kts 68°
2026-04-24 19:18 40.17553 -100.68747 38942 ft 506 kts 68°
2026-04-24 19:18 40.20136 -100.60187 38939 ft 506 kts 69°
2026-04-24 19:19 40.22186 -100.51378 38939 ft 506 kts 75°
2026-04-24 19:19 40.23898 -100.42505 38940 ft 506 kts 76°
2026-04-24 19:20 40.25645 -100.33586 38940 ft 506 kts 76°
2026-04-24 19:20 40.27415 -100.24647 38940 ft 507 kts 76°
2026-04-24 19:21 40.29187 -100.15725 38940 ft 506 kts 76°
2026-04-24 19:21 40.31028 -100.06811 38941 ft 506 kts 75°
2026-04-24 19:22 40.32837 -99.97880 38942 ft 506 kts 76°
2026-04-24 19:22 40.34623 -99.88951 38945 ft 506 kts 76°
2026-04-24 19:23 40.36388 -99.80068 38948 ft 506 kts 76°
2026-04-24 19:23 40.38165 -99.71070 38954 ft 506 kts 76°
2026-04-24 19:24 40.39912 -99.62187 38958 ft 506 kts 76°
2026-04-24 19:24 40.41665 -99.53228 38959 ft 506 kts 76°
2026-04-24 19:25 40.43406 -99.44289 38959 ft 505 kts 76°
2026-04-24 19:25 40.45140 -99.35348 38960 ft 505 kts 77°
2026-04-24 19:26 40.46867 -99.26402 38961 ft 505 kts 77°
2026-04-24 19:26 40.48297 -99.18964 38961 ft 505 kts 77°
2026-04-24 19:27 40.50012 -99.10007 38965 ft 505 kts 77°
2026-04-24 19:27 40.51720 -99.01047 38970 ft 505 kts 77°
2026-04-24 19:28 40.53419 -98.92091 38975 ft 505 kts 77°
2026-04-24 19:28 40.55111 -98.83133 38976 ft 505 kts 77°
2026-04-24 19:29 40.57638 -98.69678 38977 ft 506 kts 77°
2026-04-24 19:30 40.59316 -98.60690 38978 ft 506 kts 78°
2026-04-24 19:30 40.60983 -98.51715 38980 ft 505 kts 78°
2026-04-24 19:31 40.62647 -98.42720 38980 ft 505 kts 78°
2026-04-24 19:31 40.64301 -98.33733 38980 ft 505 kts 78°
2026-04-24 19:32 40.65951 -98.24727 38981 ft 505 kts 78°
2026-04-24 19:32 40.67593 -98.15726 38982 ft 505 kts 78°
2026-04-24 19:33 40.69227 -98.06722 38982 ft 505 kts 78°
2026-04-24 19:33 40.70854 -97.97714 38980 ft 505 kts 78°
2026-04-24 19:34 40.72475 -97.88699 38980 ft 506 kts 78°
2026-04-24 19:34 40.74080 -97.79727 38979 ft 506 kts 78°
2026-04-24 19:35 40.75688 -97.70692 38980 ft 506 kts 78°
2026-04-24 19:35 40.77288 -97.61661 38980 ft 505 kts 79°
2026-04-24 19:36 40.78879 -97.52637 38980 ft 505 kts 79°
2026-04-24 19:36 40.80464 -97.43602 38980 ft 505 kts 79°
2026-04-24 19:37 40.82043 -97.34557 38977 ft 505 kts 79°
2026-04-24 19:37 40.83616 -97.25499 38972 ft 505 kts 79°
2026-04-24 19:38 40.85178 -97.16466 38972 ft 505 kts 79°
2026-04-24 19:38 40.86776 -97.07417 38974 ft 505 kts 79°
2026-04-24 19:39 40.88316 -96.98367 38971 ft 506 kts 79°
2026-04-24 19:39 40.89847 -96.89283 38971 ft 506 kts 79°
2026-04-24 19:40 40.91370 -96.80213 38970 ft 506 kts 79°
2026-04-24 19:40 40.92897 -96.71188 38970 ft 506 kts 79°
2026-04-24 19:41 40.94534 -96.62123 38971 ft 507 kts 79°
2026-04-24 19:41 40.96132 -96.53136 38971 ft 507 kts 79°
2026-04-24 19:42 40.97733 -96.44048 38970 ft 506 kts 79°
2026-04-24 19:42 40.98993 -96.36857 38969 ft 506 kts 79°
2026-04-24 19:43 41.00593 -96.27772 38970 ft 506 kts 78°
2026-04-24 19:43 41.02237 -96.18719 38970 ft 506 kts 79°
2026-04-24 19:44 41.03847 -96.09629 38968 ft 506 kts 79°
2026-04-24 19:44 41.05437 -96.00538 38932 ft 507 kts 79°
2026-04-24 19:44 41.06230 -95.95985 38531 ft 509 kts 79°
2026-04-24 19:45 41.07023 -95.91404 37861 ft 509 kts 79°
2026-04-24 19:45 41.07814 -95.86830 37135 ft 509 kts 80°
2026-04-24 19:45 41.08603 -95.82253 36412 ft 510 kts 80°
2026-04-24 19:45 41.09389 -95.77676 35668 ft 510 kts 80°
2026-04-24 19:46 41.10177 -95.73080 34891 ft 511 kts 80°
2026-04-24 19:46 41.10962 -95.68489 34095 ft 511 kts 80°
2026-04-24 19:46 41.11735 -95.63952 33289 ft 512 kts 80°
2026-04-24 19:46 41.12518 -95.59347 32446 ft 512 kts 80°
2026-04-24 19:47 41.13299 -95.54739 31698 ft 510 kts 80°
2026-04-24 19:47 41.14071 -95.50174 31065 ft 505 kts 80°
2026-04-24 19:47 41.14835 -95.45646 30442 ft 501 kts 79°
2026-04-24 19:47 41.15591 -95.41158 29824 ft 496 kts 79°
2026-04-24 19:48 41.16338 -95.36710 29205 ft 491 kts 79°
2026-04-24 19:48 41.17074 -95.32313 28585 ft 486 kts 79°
2026-04-24 19:48 41.18522 -95.23634 27363 ft 477 kts 79°
2026-04-24 19:49 41.19933 -95.15139 26173 ft 467 kts 78°
2026-04-24 19:49 41.21312 -95.06792 24987 ft 458 kts 78°
2026-04-24 19:50 41.23310 -94.94634 23310 ft 443 kts 78°
2026-04-24 19:50 41.23958 -94.90675 22828 ft 436 kts 78°
2026-04-24 19:51 41.25239 -94.82812 21532 ft 433 kts 78°
2026-04-24 19:51 41.25873 -94.78908 20954 ft 429 kts 78°
2026-04-24 19:52 41.27117 -94.71221 19816 ft 422 kts 77°
2026-04-24 19:52 41.27730 -94.67422 19255 ft 418 kts 77°
2026-04-24 19:52 41.28334 -94.63669 18698 ft 414 kts 77°
2026-04-24 19:52 41.28934 -94.59936 18144 ft 410 kts 77°
2026-04-24 19:53 41.29525 -94.56250 17599 ft 406 kts 77°
2026-04-24 19:53 41.30110 -94.52588 17061 ft 403 kts 77°
2026-04-24 19:53 41.31262 -94.45362 15968 ft 395 kts 77°
2026-04-24 19:54 41.31829 -94.41795 15418 ft 392 kts 77°
2026-04-24 19:54 41.32389 -94.38264 14866 ft 389 kts 77°
2026-04-24 19:54 41.32941 -94.34766 14315 ft 385 kts 77°
2026-04-24 19:54 41.33491 -94.31289 13759 ft 382 kts 77°
2026-04-24 19:55 41.33852 -94.29003 13392 ft 380 kts 77°
2026-04-24 19:55 41.34571 -94.24428 12647 ft 375 kts 77°
2026-04-24 19:55 41.35102 -94.21044 12087 ft 372 kts 77°
2026-04-24 19:55 41.35627 -94.17692 11527 ft 369 kts 77°
2026-04-24 19:56 41.36147 -94.14359 10960 ft 366 kts 77°
2026-04-24 19:56 41.36656 -94.11093 10397 ft 363 kts 77°
2026-04-24 19:56 41.37164 -94.07824 10025 ft 355 kts 77°
2026-04-24 19:56 41.37672 -94.04699 10004 ft 336 kts 76°
2026-04-24 19:57 41.38146 -94.01738 9995 ft 318 kts 76°
2026-04-24 19:57 41.38588 -93.98925 9879 ft 305 kts 76°
2026-04-24 19:57 41.39018 -93.96176 9463 ft 303 kts 76°
2026-04-24 19:57 41.39441 -93.93408 8988 ft 304 kts 76°
2026-04-24 19:58 41.39857 -93.90664 8588 ft 302 kts 76°
2026-04-24 19:58 41.40273 -93.87928 8222 ft 299 kts 76°
2026-04-24 19:58 41.40683 -93.85229 7857 ft 295 kts 76°
2026-04-24 19:58 41.41085 -93.82563 7471 ft 293 kts 76°
2026-04-24 19:59 41.41484 -93.79925 7102 ft 290 kts 76°
2026-04-24 19:59 41.41882 -93.77292 6730 ft 287 kts 76°
2026-04-24 19:59 41.42273 -93.74702 6354 ft 285 kts 76°
2026-04-24 19:59 41.42660 -93.72129 6094 ft 280 kts 76°
2026-04-24 20:00 41.43047 -93.69582 6005 ft 279 kts 76°
2026-04-24 20:00 41.43422 -93.67084 6000 ft 279 kts 78°
2026-04-24 20:00 41.43591 -93.64496 5997 ft 283 kts 88°
2026-04-24 20:00 41.43369 -93.61886 5999 ft 286 kts 102°
2026-04-24 20:01 41.42657 -93.59407 6000 ft 287 kts 117°
2026-04-24 20:01 41.41527 -93.57212 5997 ft 284 kts 128°
2026-04-24 20:01 41.40290 -93.55215 5630 ft 277 kts 130°
2026-04-24 20:01 41.39043 -93.53267 4825 ft 277 kts 130°
2026-04-24 20:02 41.38196 -93.51957 4332 ft 275 kts 130°
2026-04-24 20:02 41.36713 -93.49359 3785 ft 255 kts 114°
2026-04-24 20:02 41.36420 -93.47155 3436 ft 234 kts 79°
2026-04-24 20:02 41.37107 -93.45356 3232 ft 213 kts 40°
2026-04-24 20:03 41.38391 -93.44693 3193 ft 191 kts 360°
2026-04-24 20:03 41.39529 -93.45329 3094 ft 174 kts 319°
2026-04-24 20:03 41.40302 -93.46494 2977 ft 164 kts 313°
2026-04-24 20:03 41.41040 -93.47652 2973 ft 164 kts 313°
2026-04-24 20:04 41.41787 -93.48784 2988 ft 165 kts 313°
2026-04-24 20:04 41.42569 -93.49946 2995 ft 167 kts 314°
2026-04-24 20:04 41.43352 -93.51097 2992 ft 168 kts 314°
2026-04-24 20:04 41.44130 -93.52234 2992 ft 167 kts 314°
2026-04-24 20:05 41.44926 -93.53396 2997 ft 167 kts 314°
2026-04-24 20:05 41.45688 -93.54506 2980 ft 160 kts 314°
2026-04-24 20:05 41.46420 -93.55572 2828 ft 153 kts 314°
2026-04-24 20:05 41.47128 -93.56603 2620 ft 149 kts 314°
2026-04-24 20:06 41.47819 -93.57611 2431 ft 145 kts 314°
2026-04-24 20:06 41.48473 -93.58563 2245 ft 137 kts 314°
2026-04-24 20:06 41.49111 -93.59493 2052 ft 134 kts 314°
2026-04-24 20:06 41.49731 -93.60404 1887 ft 133 kts 313°
2026-04-24 20:07 41.50150 -93.61019 1777 ft 137 kts 313°
2026-04-24 20:07 41.51006 -93.62278 1551 ft 136 kts 314°
2026-04-24 20:07 41.51651 -93.63195 1335 ft 135 kts 314°
2026-04-24 20:07 41.52274 -93.64120 1149 ft 133 kts 314°
2026-04-24 20:08 41.52893 -93.65015 999 ft 130 kts 315°
2026-04-24 20:08 41.53463 -93.65845 965 ft 100 kts 314°
2026-04-24 20:08 41.53768 -93.66289 965 ft 34 kts 311°
2026-04-24 20:08 41.53883 -93.66330 965 ft 13 kts 44°
2026-04-24 20:09 41.53900 -93.66268 965 ft 8 kts 117°
2026-04-24 20:09 41.53863 -93.66208 965 ft 9 kts 133°
2026-04-24 20:09 41.53803 -93.66121 965 ft 14 kts 132°
2026-04-24 20:09 41.53721 -93.65999 965 ft 19 kts 133°
2026-04-24 20:10 41.53623 -93.65863 965 ft 23 kts 134°
2026-04-24 20:10 41.53514 -93.65709 965 ft 22 kts 132°
2026-04-24 20:10 41.53415 -93.65554 965 ft 21 kts 130°
2026-04-24 20:10 41.53316 -93.65412 965 ft 20 kts 133°
2026-04-24 20:11 41.53220 -93.65278 965 ft 17 kts 134°
2026-04-24 20:11 41.53160 -93.65195 965 ft 12 kts 134°
2026-04-24 20:11 41.53094 -93.65102 965 ft 15 kts 133°
2026-04-24 20:11 41.53052 -93.65025 965 ft 6 kts 77°
2026-04-24 20:12 41.53090 -93.65006 965 ft 6 kts 359°
2026-04-24 20:12 41.53135 -93.65007 965 ft 8 kts 358°
2026-04-24 20:12 41.53161 -93.65008 965 ft 1 kts 358°
2026-04-24 20:12 41.53164 -93.65009 965 ft 0 kts 358°